Weather History for KSRR - January, 2014

Change the Weather History Date:

Saturday, January 25, 2014

  Actual Average (K4CR) Record (K4CR)
Temperature  
Mean Temperature 45 °F -  
Max Temperature 51 °F 35 °F - (-1)
Min Temperature 39 °F 27 °F - (-1)
Degree Days  
Heating Degree Days 20    
Moisture  
Dew Point -6 °F    
Average Humidity 13    
Maximum Humidity 24    
Minimum Humidity 7    
Precipitation  
Precipitation 0.00 in - - ()
Sea Level Pressure  
Sea Level Pressure 30.23 in    
Wind  
Wind Speed 14 mph (NW)    
Max Wind Speed 22 mph    
Max Gust Speed 30 mph    
Visibility 10 miles    
Events      
Averages and records for this station are not official NWS values.
T = Trace of Precipitation, MM = Missing Value Source: NWS Daily Summary

Daily Weather History Graph

Daily Weather History Graph

Search for Another Location

Airport or City:

Trip Planner

Search our weather history database for the weather conditions in past years. The results will help you decide how hot, cold, wet, or windy it might be!

Date:

Astronomy

Jan. 25, 2014 Rise Set
Actual Time 7:02 AM MST 5:26 PM MST
Civil Twilight 6:35 AM MST 5:53 PM MST
Nautical Twilight 6:05 AM MST 6:23 PM MST
Astronomical Twilight 5:36 AM MST 6:52 PM MST
Moon 1:38 AM MST (1/25) 12:29 PM MST (1/25)
Length of Visible Light 11h 17m
Length of Day
10h 24m
Waning Crescent, 33% of the Moon is Illuminated
Jan 25
Waning Crescent
Jan 30
New
Feb 6
First Quarter
Feb 14
Full
Feb 22
Last Quarter

Hourly Weather History & Observations

Time (MST) Temp. Windchill Dew Point Humidity Pressure Visibility Wind Dir Wind Speed Gust Speed Precip Events Conditions
12:15 AM 39.2 °F 30.2 °F -4.0 °F 16% 30.34 in 10.0 mi WNW 17.3 mph 23.0 mph N/A   Clear
12:35 AM 39.2 °F 29.6 °F -5.8 °F 15% 30.33 in 10.0 mi WNW 19.6 mph 29.9 mph N/A   Clear
12:55 AM 39.2 °F 29.0 °F -4.0 °F 16% 30.33 in 10.0 mi WNW 21.9 mph 28.8 mph N/A   Clear
1:15 AM 39.2 °F 29.6 °F -4.0 °F 16% 30.33 in 10.0 mi WNW 19.6 mph 25.3 mph N/A   Clear
1:35 AM 39.2 °F 29.0 °F -4.0 °F 16% 30.32 in 10.0 mi WNW 21.9 mph 28.8 mph N/A   Clear
1:55 AM 39.2 °F 30.5 °F -7.6 °F 14% 30.32 in 10.0 mi WNW 16.1 mph 21.9 mph N/A   Clear
2:15 AM 39.2 °F 32.0 °F -7.6 °F 14% 30.33 in 10.0 mi NW 11.5 mph - N/A   Clear
2:35 AM 39.2 °F 31.2 °F -7.6 °F 14% 30.32 in 10.0 mi WNW 13.8 mph 20.7 mph N/A   Clear
2:55 AM 39.2 °F 30.8 °F -5.8 °F 15% 30.32 in 10.0 mi NW 15.0 mph 20.7 mph N/A   Clear
3:15 AM 39.2 °F 30.5 °F -4.0 °F 16% 30.31 in 10.0 mi WNW 16.1 mph 24.2 mph N/A   Clear
3:35 AM 39.2 °F 31.2 °F -2.2 °F 17% 30.30 in 10.0 mi NW 13.8 mph 19.6 mph N/A   Clear
3:55 AM 39.2 °F 31.2 °F -2.2 °F 17% 30.30 in 10.0 mi NW 13.8 mph 20.7 mph N/A   Clear
4:15 AM 39.2 °F 30.8 °F -2.2 °F 17% 30.29 in 10.0 mi NW 15.0 mph 21.9 mph N/A   Clear
4:35 AM 39.2 °F 31.2 °F -4.0 °F 16% 30.28 in 10.0 mi WNW 13.8 mph - N/A   Clear
4:55 AM 39.2 °F 31.2 °F -7.6 °F 14% 30.28 in 10.0 mi WNW 13.8 mph 19.6 mph N/A   Clear
5:15 AM 39.2 °F 31.6 °F -7.6 °F 14% 30.28 in 10.0 mi NW 12.7 mph - N/A   Clear
5:35 AM 39.2 °F 33.0 °F -7.6 °F 14% 30.28 in 10.0 mi NW 9.2 mph 16.1 mph N/A   Clear
5:55 AM 39.2 °F 31.2 °F -9.4 °F 12% 30.28 in 10.0 mi WNW 13.8 mph 18.4 mph N/A   Clear
6:15 AM 41.0 °F 33.5 °F -9.4 °F 12% 30.28 in 10.0 mi NW 13.8 mph - N/A   Clear
6:35 AM 39.2 °F 35.0 °F -9.4 °F 12% 30.29 in 10.0 mi NNW 5.8 mph - N/A   Clear
6:55 AM 39.2 °F 33.0 °F -7.6 °F 14% 30.29 in 10.0 mi NNW 9.2 mph - N/A   Clear
7:15 AM 39.2 °F 32.0 °F -7.6 °F 14% 30.28 in 10.0 mi NNW 11.5 mph 19.6 mph N/A   Scattered Clouds
7:35 AM 39.2 °F 33.0 °F -7.6 °F 14% 30.28 in 10.0 mi NNW 9.2 mph 18.4 mph N/A   Mostly Cloudy
7:55 AM 41.0 °F 33.9 °F -9.4 °F 12% 30.28 in 10.0 mi NNW 12.7 mph - N/A   Scattered Clouds
8:15 AM 41.0 °F 35.8 °F -9.4 °F 12% 30.28 in 10.0 mi NW 8.1 mph - N/A   Partly Cloudy
8:35 AM 42.8 °F 38.6 °F -7.6 °F 12% 30.28 in 10.0 mi NNW 6.9 mph - N/A   Scattered Clouds
8:55 AM 44.6 °F 38.8 °F -7.6 °F 11% 30.28 in 10.0 mi NW 11.5 mph - N/A   Partly Cloudy
9:15 AM 46.4 °F 40.4 °F -9.4 °F 9% 30.28 in 10.0 mi NW 13.8 mph 19.6 mph N/A   Partly Cloudy
9:35 AM 46.4 °F 40.7 °F -9.4 °F 9% 30.28 in 10.0 mi NNW 12.7 mph 18.4 mph N/A   Partly Cloudy
9:55 AM 46.4 °F 40.4 °F -9.4 °F 9% 30.28 in 10.0 mi NNW 13.8 mph 19.6 mph N/A   Clear
10:15 AM 48.2 °F - -9.4 °F 9% 30.28 in 10.0 mi NW 15.0 mph 21.9 mph N/A   Clear
10:35 AM 48.2 °F - -9.4 °F 9% 30.28 in 10.0 mi NNW 11.5 mph 19.6 mph N/A   Clear
10:55 AM 48.2 °F - -9.4 °F 9% 30.27 in 10.0 mi NW 13.8 mph 19.6 mph N/A   Partly Cloudy
11:15 AM 50.0 °F - -7.6 °F 9% 30.26 in 10.0 mi NW 12.7 mph 24.2 mph N/A   Partly Cloudy
11:35 AM 48.2 °F - -7.6 °F 10% 30.25 in 10.0 mi NNW 12.7 mph 20.7 mph N/A   Scattered Clouds
11:55 AM 50.0 °F - -4.0 °F 11% 30.24 in 10.0 mi NW 16.1 mph 21.9 mph N/A   Mostly Cloudy
12:15 PM 48.2 °F - -4.0 °F 11% 30.23 in 10.0 mi NW 12.7 mph 25.3 mph N/A   Overcast
12:35 PM 48.2 °F - -4.0 °F 11% 30.22 in 10.0 mi NW 15.0 mph 23.0 mph N/A   Mostly Cloudy
12:55 PM 50.0 °F - -4.0 °F 11% 30.21 in 10.0 mi NW 16.1 mph 26.5 mph N/A   Mostly Cloudy
1:15 PM 50.0 °F - -5.8 °F 10% 30.20 in 10.0 mi North 15.0 mph 25.3 mph N/A   Mostly Cloudy
1:35 PM 48.2 °F - -9.4 °F 9% 30.20 in 10.0 mi NW 12.7 mph 20.7 mph N/A   Mostly Cloudy
1:55 PM 48.2 °F - -9.4 °F 9% 30.19 in 10.0 mi NW 12.7 mph 24.2 mph N/A   Mostly Cloudy
2:15 PM 48.2 °F - -5.8 °F 10% 30.19 in 10.0 mi NW 9.2 mph 17.3 mph N/A   Partly Cloudy
2:35 PM 48.2 °F - -4.0 °F 11% 30.18 in 10.0 mi NW 11.5 mph 17.3 mph N/A   Scattered Clouds
2:55 PM 48.2 °F - -7.6 °F 10% 30.18 in 10.0 mi NW 12.7 mph 18.4 mph N/A   Scattered Clouds
3:15 PM 50.0 °F - -11.2 °F 8% 30.17 in 10.0 mi NW 13.8 mph 21.9 mph N/A   Overcast
3:35 PM 51.8 °F - -13.0 °F 7% 30.17 in 10.0 mi NW 13.8 mph 20.7 mph N/A   Mostly Cloudy
3:55 PM 48.2 °F - -11.2 °F 8% 30.17 in 10.0 mi NW 12.7 mph 17.3 mph N/A   Scattered Clouds
4:15 PM 48.2 °F - -13.0 °F 7% 30.17 in 10.0 mi WNW 11.5 mph 20.7 mph N/A   Mostly Cloudy
4:35 PM 46.4 °F 41.9 °F -11.2 °F 9% 30.17 in 10.0 mi NW 9.2 mph 16.1 mph N/A   Partly Cloudy
4:55 PM 48.2 °F - -11.2 °F 8% 30.16 in 10.0 mi NW 9.2 mph 16.1 mph N/A   Clear
5:15 PM 46.4 °F 42.9 °F -9.4 °F 9% 30.16 in 10.0 mi NNW 6.9 mph - N/A   Clear
5:35 PM 46.4 °F 41.5 °F -9.4 °F 9% 30.16 in 10.0 mi WNW 10.4 mph - N/A   Clear
5:55 PM 44.6 °F 40.2 °F -9.4 °F 10% 30.16 in 10.0 mi WNW 8.1 mph - N/A   Clear
6:15 PM 44.6 °F 39.7 °F -9.4 °F 10% 30.16 in 10.0 mi WNW 9.2 mph 17.3 mph N/A   Clear
6:35 PM 44.6 °F 39.2 °F -9.4 °F 10% 30.16 in 10.0 mi West 10.4 mph 16.1 mph N/A   Clear
6:55 PM 42.8 °F 41.1 °F -9.4 °F 11% 30.16 in 10.0 mi West 3.5 mph - N/A   Clear
7:15 PM 44.6 °F - -9.4 °F 10% 30.15 in 10.0 mi Calm Calm - N/A   Clear
8:15 PM 41.0 °F - -4.0 °F 15% 30.15 in 10.0 mi Calm Calm - N/A   Clear
8:35 PM 41.0 °F 37.1 °F -7.6 °F 13% 30.14 in 10.0 mi WNW 5.8 mph - N/A   Clear
8:55 PM 41.0 °F 39.0 °F -4.0 °F 15% 30.13 in 10.0 mi West 3.5 mph - N/A   Clear
9:15 PM 41.0 °F 38.0 °F -4.0 °F 15% 30.13 in 10.0 mi WSW 4.6 mph - N/A   Clear
9:35 PM 41.0 °F - -4.0 °F 15% 30.12 in 10.0 mi Calm Calm - N/A   Clear
9:55 PM 42.8 °F 41.1 °F 3.2 °F 19% 30.11 in 10.0 mi SE 3.5 mph - N/A   Clear
10:15 PM 41.0 °F 35.8 °F 6.8 °F 24% 30.10 in 10.0 mi SW 8.1 mph - N/A   Clear
10:35 PM 41.0 °F 39.0 °F 6.8 °F 24% 30.10 in 10.0 mi NW 3.5 mph - N/A   Clear
10:55 PM 44.6 °F 36.6 °F 5.0 °F 20% 30.09 in 10.0 mi WNW 19.6 mph 27.6 mph N/A   Clear
11:15 PM 44.6 °F 36.6 °F 3.2 °F 18% 30.10 in 10.0 mi West 19.6 mph 29.9 mph N/A   Clear
11:35 PM 41.0 °F 33.5 °F 5.0 °F 23% 30.10 in 10.0 mi West 13.8 mph - N/A   Clear
11:55 PM 39.2 °F 31.6 °F 3.2 °F 22% 30.10 in 10.0 mi West 12.7 mph - N/A   Clear